Time,TemperatureF,DewpointF,PressureIn,WindDirection,WindDirectionDegrees,WindSpeedMPH,WindSpeedGustMPH,Humidity,HourlyPrecipIn,Conditions,Clouds,dailyrainin,SoftwareType,DateUTC
2013-11-21 00:11:00,40.0,33.0,-100.00,South,173,0.0,0.0,77,0.00,,,0.00,,2013-11-21 00:11:00,
2013-11-21 03:11:00,38.0,34.0,-100.00,South,170,1.0,5.0,86,0.00,,,0.00,,2013-11-21 03:11:00,
2013-11-21 03:22:00,39.0,35.0,-100.00,South,171,0.0,0.0,86,0.00,,,0.00,,2013-11-21 03:22:00,
2013-11-21 03:43:00,39.0,35.0,-100.00,South,171,0.0,0.0,85,0.00,,,0.00,,2013-11-21 03:43:00,
2013-11-21 03:54:00,40.0,35.0,-100.00,SSW,210,0.0,0.0,82,0.00,,,0.00,,2013-11-21 03:54:00,
2013-11-21 04:13:00,41.0,35.0,-100.00,SSE,168,1.0,4.0,78,0.00,,,0.00,,2013-11-21 04:13:00,
2013-11-21 04:24:00,42.0,34.0,-100.00,SSE,164,1.0,6.0,74,0.00,,,0.00,,2013-11-21 04:24:00,
2013-11-21 04:43:00,43.0,35.0,-100.00,SE,131,0.0,1.0,73,0.00,,,0.00,,2013-11-21 04:43:00,
2013-11-21 04:53:00,42.0,34.0,-100.00,South,191,1.0,4.0,72,0.00,,,0.00,,2013-11-21 04:53:00,
2013-11-21 05:12:00,43.0,34.0,-100.00,South,172,0.0,4.0,71,0.00,,,0.00,,2013-11-21 05:12:00,
2013-11-21 05:23:00,43.0,35.0,-100.00,SSW,193,0.0,4.0,72,0.00,,,0.00,,2013-11-21 05:23:00,
2013-11-21 05:42:00,43.0,34.0,-100.00,SE,139,1.0,4.0,69,0.00,,,0.00,,2013-11-21 05:42:00,
2013-11-21 05:53:00,44.0,34.0,-100.00,SSE,159,1.0,5.0,68,0.00,,,0.00,,2013-11-21 05:53:00,
2013-11-21 06:12:00,44.0,33.0,-100.00,South,187,0.0,7.0,66,0.00,,,0.00,,2013-11-21 06:12:00,
2013-11-21 06:22:00,44.0,33.0,-100.00,ESE,120,1.0,3.0,66,0.00,,,0.00,,2013-11-21 06:22:00,
2013-11-21 06:43:00,43.0,33.0,-100.00,SSE,152,1.0,4.0,68,0.00,,,0.00,,2013-11-21 06:43:00,
2013-11-21 06:52:00,43.0,33.0,-100.00,SW,222,1.0,4.0,68,0.00,,,0.00,,2013-11-21 06:52:00,
2013-11-21 07:11:00,43.0,34.0,-100.00,South,183,0.0,0.0,69,0.00,,,0.00,,2013-11-21 07:11:00,
2013-11-21 07:22:00,43.0,35.0,-100.00,SE,126,0.0,1.0,72,0.00,,,0.00,,2013-11-21 07:22:00,
2013-11-21 07:42:00,43.0,35.0,-100.00,SE,126,0.0,0.0,72,0.00,,,0.00,,2013-11-21 07:42:00,
2013-11-21 07:52:00,43.0,35.0,-100.00,SE,130,0.0,1.0,73,0.00,,,0.00,,2013-11-21 07:52:00,
2013-11-21 08:12:00,43.0,34.0,-100.00,SSE,154,0.0,0.0,71,0.00,,,0.00,,2013-11-21 08:12:00,
2013-11-21 08:22:00,43.0,35.0,-100.00,ESE,113,0.0,1.0,73,0.00,,,0.00,,2013-11-21 08:22:00,
2013-11-21 08:42:00,43.0,34.0,-100.00,South,175,0.0,2.0,71,0.00,,,0.00,,2013-11-21 08:42:00,
2013-11-21 08:52:00,44.0,36.0,-100.00,South,175,0.0,1.0,74,0.00,,,0.00,,2013-11-21 08:52:00,
2013-11-21 09:11:00,44.0,37.0,-100.00,South,175,0.0,1.0,77,0.00,,,0.00,,2013-11-21 09:11:00,
2013-11-21 09:22:00,43.0,38.0,-100.00,South,175,0.0,0.0,84,0.00,,,0.00,,2013-11-21 09:22:00,
2013-11-21 09:43:00,42.0,38.0,-100.00,South,175,0.0,0.0,86,0.01,,,0.01,,2013-11-21 09:43:00,
2013-11-21 09:53:00,42.0,39.0,-100.00,South,175,0.0,0.0,89,0.01,,,0.01,,2013-11-21 09:53:00,
2013-11-21 10:13:00,42.0,39.0,-100.00,South,175,0.0,0.0,90,0.01,,,0.01,,2013-11-21 10:13:00,
2013-11-21 10:23:00,41.0,39.0,-100.00,South,175,0.0,0.0,91,0.01,,,0.01,,2013-11-21 10:23:00,
2013-11-21 10:42:00,41.0,39.0,-100.00,South,176,0.0,0.0,91,0.00,,,0.01,,2013-11-21 10:42:00,
2013-11-21 10:53:00,41.0,39.0,-100.00,South,175,0.0,0.0,92,0.00,,,0.01,,2013-11-21 10:53:00,
2013-11-21 11:12:00,41.0,39.0,-100.00,South,175,0.0,0.0,91,0.00,,,0.01,,2013-11-21 11:12:00,
2013-11-21 11:22:00,41.0,38.0,-100.00,South,169,0.0,4.0,88,0.00,,,0.01,,2013-11-21 11:22:00,
2013-11-21 11:43:00,41.0,37.0,-100.00,ESE,107,0.0,1.0,84,0.00,,,0.01,,2013-11-21 11:43:00,
2013-11-21 11:52:00,41.0,37.0,-100.00,South,170,0.0,1.0,85,0.00,,,0.01,,2013-11-21 11:52:00,
2013-11-21 12:12:00,41.0,37.0,-100.00,South,171,0.0,0.0,85,0.00,,,0.01,,2013-11-21 12:12:00,
2013-11-21 12:22:00,41.0,37.0,-100.00,South,170,0.0,0.0,86,0.00,,,0.01,,2013-11-21 12:22:00,
2013-11-21 12:42:00,40.0,36.0,-100.00,SE,135,0.0,0.0,85,0.00,,,0.01,,2013-11-21 12:42:00,
2013-11-21 12:52:00,40.0,36.0,-100.00,SE,135,0.0,0.0,85,0.00,,,0.01,,2013-11-21 12:52:00,
2013-11-21 13:11:00,41.0,37.0,-100.00,South,191,0.0,0.0,86,0.00,,,0.01,,2013-11-21 13:11:00,
2013-11-21 13:22:00,41.0,37.0,-100.00,South,191,0.0,0.0,85,0.00,,,0.01,,2013-11-21 13:22:00,
2013-11-21 13:40:00,42.0,37.0,-100.00,South,181,0.0,2.0,82,0.00,,,0.01,,2013-11-21 13:40:00,
2013-11-21 13:42:00,41.0,37.0,-100.00,South,191,0.0,0.0,86,0.00,,,0.01,,2013-11-21 13:42:00,
2013-11-21 13:52:00,42.0,38.0,-100.00,South,191,0.0,0.0,84,0.00,,,0.01,,2013-11-21 13:52:00,
2013-11-21 14:11:00,42.0,37.0,-100.00,South,181,0.0,2.0,82,0.00,,,0.01,,2013-11-21 14:11:00,
2013-11-21 14:22:00,42.0,37.0,-100.00,South,181,0.0,2.0,82,0.00,,,0.01,,2013-11-21 14:22:00,
2013-11-21 14:32:00,42.0,37.0,-100.00,South,181,0.0,2.0,82,0.00,,,0.01,,2013-11-21 14:32:00,